timestamp,surface_pressure_avg,surface_temp_avg,battery_voltage,lat,long
2022-02-21 00:09:01+00:00,280.2014,1.74,12.25,47.84626,-54.09684
2022-02-21 00:19:00+00:00,297.153,1.75,12.25,47.84626,-54.09684
2022-02-21 00:29:00+00:00,295.2714,1.76,12.25,47.84626,-54.09684
2022-02-21 00:39:00+00:00,295.8597,1.7,12.25,47.84626,-54.09684
2022-02-21 00:49:00+00:00,314.123,1.7,12.25,47.84626,-54.09684
2022-02-21 00:59:00+00:00,326.71299999999997,1.73,12.25,47.84626,-54.09684
2022-02-21 01:09:00+00:00,327.0096,1.72,12.25,47.84626,-54.09684
2022-02-21 01:19:00+00:00,333.1997,1.7,12.25,47.84626,-54.09684
2022-02-21 01:29:00+00:00,348.4446,1.7,12.25,47.84626,-54.09684
2022-02-21 01:39:00+00:00,348.7346,1.7,12.25,47.84626,-54.09684
2022-02-21 01:49:00+00:00,344.3513,1.72,12.25,47.84626,-54.09684
2022-02-21 01:59:00+00:00,344.9779,1.71,12.25,47.84626,-54.09684
2022-02-21 02:09:00+00:00,346.7646,1.7,12.25,47.84626,-54.09684
2022-02-21 02:19:00+00:00,349.4529,1.7,12.25,47.84626,-54.09684
2022-02-21 02:29:00+00:00,353.8779,1.7,12.25,47.84626,-54.09684
2022-02-21 02:39:00+00:00,348.0713,1.7,12.25,47.84626,-54.09684
2022-02-21 02:49:00+00:00,345.3896,1.7,12.25,47.84626,-54.09684
2022-02-21 02:59:00+00:00,351.6113,1.7,12.25,47.84626,-54.09684
2022-02-21 03:09:00+00:00,347.583,1.7,12.25,47.84626,-54.09684
2022-02-21 03:19:00+00:00,340.7747,1.71,12.25,47.84626,-54.09684
2022-02-21 03:29:00+00:00,354.3579,1.71,12.25,47.84626,-54.09684
2022-02-21 03:39:00+00:00,354.8113,1.71,12.25,47.84626,-54.09684
2022-02-21 03:49:00+00:00,336.1546,1.71,12.25,47.84626,-54.09684
2022-02-21 03:59:00+00:00,345.9097,1.7,12.25,47.84626,-54.09684
2022-02-21 04:09:00+00:00,352.9146,1.7,12.25,47.84626,-54.09684
2022-02-21 04:19:00+00:00,328.8129,1.7,12.25,47.84626,-54.09684
2022-02-21 04:29:00+00:00,318.2614,1.7,12.25,47.84626,-54.09684
2022-02-21 04:39:00+00:00,331.9297,1.7,12.25,47.84626,-54.09684
2022-02-21 04:49:00+00:00,320.7762,1.7,12.25,47.84626,-54.09684
2022-02-21 04:59:00+00:00,290.2214,1.7,12.25,47.84626,-54.09684
2022-02-21 05:09:00+00:00,291.4565,1.7,12.25,47.84626,-54.09684
2022-02-21 05:19:00+00:00,296.7297,1.7,12.17,47.84626,-54.09684
2022-02-21 05:29:00+00:00,276.5314,1.68,12.17,47.84626,-54.09684
2022-02-21 05:39:00+00:00,261.3914,1.61,12.17,47.84626,-54.09684
2022-02-21 05:49:00+00:00,275.8497,1.62,12.17,47.84626,-54.09684
2022-02-21 05:59:00+00:00,276.3047,1.65,12.17,47.84626,-54.09684
2022-02-21 06:09:00+00:00,253.7264,1.63,12.17,47.84626,-54.09684
2022-02-21 06:19:01+00:00,241.1181,1.6,12.17,47.84626,-54.09684
2022-02-21 06:29:01+00:00,244.06799999999998,1.62,12.17,47.84626,-54.09684
2022-02-21 06:39:01+00:00,235.5964,1.6,12.17,47.84626,-54.09684
2022-02-21 06:49:01+00:00,217.5448,1.6,12.17,47.84626,-54.09684
2022-02-21 06:59:01+00:00,213.7114,1.6,12.17,47.84626,-54.09684
2022-02-21 07:09:01+00:00,215.9798,1.6,12.17,47.84626,-54.09684
2022-02-21 07:19:00+00:00,210.5881,1.6,12.25,47.84626,-54.09684
2022-02-21 07:29:00+00:00,210.6247,1.6,12.25,47.84626,-54.09684
2022-02-21 07:39:00+00:00,216.2281,1.6,12.25,47.84626,-54.09684
2022-02-21 07:49:00+00:00,212.3448,1.6,12.25,47.84626,-54.09684
2022-02-21 07:59:00+00:00,205.0481,1.5,12.25,47.84626,-54.09684
2022-02-21 08:09:00+00:00,208.1181,1.5,12.25,47.84626,-54.09684
2022-02-21 08:19:01+00:00,208.2431,1.52,12.17,47.84626,-54.09684
2022-02-21 08:29:01+00:00,201.4714,1.53,12.17,47.84626,-54.09684
2022-02-21 08:39:01+00:00,202.0748,1.5,12.17,47.84626,-54.09684
2022-02-21 08:49:01+00:00,202.6531,1.51,12.17,47.84626,-54.09684
2022-02-21 08:59:01+00:00,202.9865,1.54,12.17,47.84626,-54.09684
2022-02-21 09:09:01+00:00,207.1681,1.56,12.17,47.84626,-54.09684
2022-02-21 09:19:01+00:00,211.0581,1.57,12.17,47.84626,-54.09684
2022-02-21 09:29:01+00:00,214.6014,1.6,12.17,47.84626,-54.09684
2022-02-21 09:39:01+00:00,214.0614,1.6,12.17,47.84626,-54.09684
2022-02-21 09:49:01+00:00,213.5131,1.66,12.17,47.84626,-54.09684
2022-02-21 09:59:01+00:00,217.9547,1.69,12.17,47.84626,-54.09684
2022-02-21 10:09:01+00:00,223.0448,1.69,12.17,47.84626,-54.09684
2022-02-21 10:19:00+00:00,225.2981,1.7,12.17,47.84626,-54.09684
2022-02-21 10:29:00+00:00,228.3947,1.7,12.17,47.84626,-54.09684
2022-02-21 10:39:00+00:00,233.0214,1.7,12.17,47.84626,-54.09684
2022-02-21 10:49:00+00:00,236.5048,1.7,12.17,47.84626,-54.09684
2022-02-21 10:59:00+00:00,242.3031,1.7,12.17,47.84626,-54.09684
2022-02-21 11:09:00+00:00,243.4097,1.7,12.17,47.84626,-54.09684
2022-02-21 11:19:00+00:00,239.5764,1.7,12.17,47.84626,-54.09684
2022-02-21 11:29:00+00:00,251.0348,1.7,12.17,47.84626,-54.09684
2022-02-21 11:39:00+00:00,263.4714,1.7,12.17,47.84626,-54.09684
2022-02-21 11:49:00+00:00,260.2148,1.7,12.17,47.84626,-54.09684
2022-02-21 11:59:00+00:00,258.5014,1.7,12.17,47.84626,-54.09684
2022-02-21 12:09:00+00:00,268.6747,1.7,12.17,47.84626,-54.09684
2022-02-21 12:19:00+00:00,284.3581,1.7,12.25,47.84626,-54.09684
2022-02-21 12:29:00+00:00,287.2197,1.7,12.25,47.84626,-54.09684
2022-02-21 12:39:00+00:00,287.5847,1.7,12.25,47.84626,-54.09684
2022-02-21 12:49:00+00:00,291.7947,1.7,12.25,47.84626,-54.09684
2022-02-21 12:59:00+00:00,307.4163,1.7,12.25,47.84626,-54.09684
2022-02-21 13:09:00+00:00,313.5681,1.69,12.25,47.84626,-54.09684
2022-02-21 13:19:01+00:00,313.4579,1.6,12.25,47.84626,-54.09684
2022-02-21 13:29:01+00:00,323.288,1.5,12.25,47.84626,-54.09684
2022-02-21 13:39:01+00:00,338.4196,1.4,12.25,47.84626,-54.09684
2022-02-21 13:49:01+00:00,343.9797,1.4,12.25,47.84626,-54.09684
2022-02-21 13:59:01+00:00,347.3046,1.4,12.25,47.84626,-54.09684
2022-02-21 14:09:01+00:00,349.2713,1.37,12.25,47.84626,-54.09684
2022-02-21 14:19:00+00:00,355.7396,1.38,12.25,47.84626,-54.09684
2022-02-21 14:29:00+00:00,358.2946,1.38,12.25,47.84626,-54.09684
2022-02-21 14:39:00+00:00,355.8713,1.3,12.25,47.84626,-54.09684
2022-02-21 14:49:00+00:00,347.6996,1.3,12.25,47.84626,-54.09684
2022-02-21 14:59:00+00:00,350.8696,1.3,12.25,47.84626,-54.09684
2022-02-21 15:09:00+00:00,355.2664,1.3,12.25,47.84626,-54.09684
2022-02-21 15:19:00+00:00,340.5797,1.3,12.25,47.84626,-54.09684
2022-02-21 15:29:00+00:00,335.7879,1.3,12.25,47.84626,-54.09684
2022-02-21 15:39:00+00:00,346.9413,1.3,12.25,47.84626,-54.09684
2022-02-21 15:49:00+00:00,343.4429,1.36,12.25,47.84626,-54.09684
2022-02-21 15:59:00+00:00,326.238,1.4,12.25,47.84626,-54.09684
2022-02-21 16:09:00+00:00,326.218,1.4,12.25,47.84626,-54.09684
2022-02-21 16:19:00+00:00,336.0163,1.4,12.25,47.84626,-54.09684
2022-02-21 16:29:00+00:00,323.728,1.4,12.25,47.84626,-54.09684
2022-02-21 16:39:00+00:00,304.4846,1.4,12.25,47.84626,-54.09684
2022-02-21 16:49:00+00:00,306.418,1.4,12.25,47.84626,-54.09684
2022-02-21 16:59:00+00:00,313.5081,1.4,12.25,47.84626,-54.09684
2022-02-21 17:09:00+00:00,301.8013,1.4,12.25,47.84626,-54.09684
2022-02-21 17:19:00+00:00,289.0447,1.4,12.25,47.84626,-54.09684
2022-02-21 17:29:00+00:00,290.3331,1.4,12.25,47.84626,-54.09684
2022-02-21 17:39:00+00:00,286.8698,1.4,12.25,47.84626,-54.09684
2022-02-21 17:49:00+00:00,266.2948,1.4,12.25,47.84626,-54.09684
2022-02-21 17:59:00+00:00,258.268,1.4,12.25,47.84626,-54.09684
2022-02-21 18:09:00+00:00,257.8064,1.4,12.25,47.84626,-54.09684
2022-02-21 18:19:00+00:00,247.843,1.4,12.25,47.84626,-54.09684
2022-02-21 18:29:00+00:00,233.7047,1.4,12.25,47.84626,-54.09684
2022-02-21 18:39:00+00:00,228.0365,1.4,12.25,47.84626,-54.09684
2022-02-21 18:49:00+00:00,219.3797,1.4,12.25,47.84626,-54.09684
2022-02-21 18:59:00+00:00,209.5348,1.36,12.25,47.84626,-54.09684
2022-02-21 19:09:00+00:00,202.0498,1.38,12.25,47.84626,-54.09684
2022-02-21 19:19:00+00:00,196.3565,1.39,12.25,47.84626,-54.09684
2022-02-21 19:29:00+00:00,192.8031,1.4,12.25,47.84626,-54.09684
2022-02-21 19:39:00+00:00,185.5898,1.4,12.25,47.84626,-54.09684
2022-02-21 19:49:00+00:00,175.4031,1.4,12.25,47.84626,-54.09684
2022-02-21 19:59:00+00:00,170.0032,1.4,12.25,47.84626,-54.09684
2022-02-21 20:09:00+00:00,172.1298,1.4,12.25,47.84626,-54.09684
2022-02-21 20:19:00+00:00,168.7515,1.4,12.25,47.84626,-54.09684
2022-02-21 20:29:00+00:00,163.2415,1.4,12.25,47.84626,-54.09684
2022-02-21 20:39:00+00:00,166.5614,1.4,12.25,47.84626,-54.09684
2022-02-21 20:49:00+00:00,167.1465,1.4,12.25,47.84626,-54.09684
2022-02-21 20:59:00+00:00,158.7215,1.4,12.25,47.84626,-54.09684
2022-02-21 21:09:00+00:00,157.4282,1.4,12.25,47.84626,-54.09684
2022-02-21 21:19:00+00:00,167.6398,1.4,12.25,47.84626,-54.09684
2022-02-21 21:29:00+00:00,169.5382,1.4,12.25,47.84626,-54.09684
2022-02-21 21:39:00+00:00,162.3415,1.4,12.25,47.84626,-54.09684
2022-02-21 21:49:00+00:00,164.6215,1.4,12.25,47.84626,-54.09684
2022-02-21 21:59:00+00:00,176.3398,1.4,12.25,47.84626,-54.09684
2022-02-21 22:09:00+00:00,180.5865,1.4,12.25,47.84626,-54.09684
2022-02-21 22:19:01+00:00,180.9398,1.4,12.25,47.84626,-54.09684
2022-02-21 22:29:01+00:00,184.2214,1.4,12.25,47.84626,-54.09684
2022-02-21 22:39:01+00:00,189.4731,1.4,12.25,47.84626,-54.09684
2022-02-21 22:49:01+00:00,196.4315,1.4,12.25,47.84626,-54.09684
2022-02-21 22:59:01+00:00,196.2031,1.4,12.25,47.84626,-54.09684
2022-02-21 23:09:01+00:00,194.4181,1.4,12.25,47.84626,-54.09684
2022-02-21 23:19:00+00:00,205.8681,1.4,12.25,47.84626,-54.09684
2022-02-21 23:29:00+00:00,217.0147,1.4,12.25,47.84626,-54.09684
2022-02-21 23:39:00+00:00,220.1181,1.4,12.25,47.84626,-54.09684
2022-02-21 23:49:00+00:00,223.7514,1.4,12.25,47.84626,-54.09684
2022-02-21 23:59:00+00:00,236.6448,1.4,12.25,47.84626,-54.09684
